GFSMA_sfc_thetae_021.txt.gz
Theta_e
321 322 322 322 322 321 323 324 325 326 325 324 323 327 330 328 335 337 336 346 346 345 345 345 344 343 343 343 343 344 345 346 347 345 343 342 339 338 336 335 334 333 333
321 322 323 323 322 321 322 324 326 326 327 322 322 327 328 331 336 335 337 343 345 346 345 344 344 342 343 342 341 343 345 346 345 343 341 340 338 335 335 334 334 333 333
323 323 323 325 324 322 322 323 324 327 327 325 323 329 329 332 333 336 337 339 340 344 344 343 343 343 342 342 341 342 345 345 343 342 340 338 337 336 334 334 333 333 331
325 323 323 323 325 322 321 321 322 322 323 324 327 326 327 331 332 336 338 338 335 338 341 341 342 342 342 342 342 344 344 343 342 339 338 336 334 335 334 333 333 331 330
328 325 323 322 324 321 322 322 321 322 321 322 323 327 328 330 334 338 336 336 336 336 336 340 340 340 342 342 343 345 344 341 339 338 335 334 334 333 333 332 332 330 329
329 326 325 324 324 321 321 320 321 322 322 321 326 325 328 330 333 334 334 335 335 335 335 335 337 338 340 341 342 344 344 340 337 336 336 335 334 333 332 332 331 329 328
327 325 324 326 323 321 322 321 320 319 319 322 323 327 328 330 331 332 332 332 333 333 332 334 334 334 335 339 340 342 342 339 338 335 335 334 333 332 332 331 330 329 328
327 326 323 321 323 321 321 321 320 320 321 323 323 323 317 321 327 329 330 330 330 331 331 332 333 332 333 334 335 339 340 339 338 335 333 333 332 331 331 329 329 328 327
327 328 325 324 325 322 321 320 321 320 317 320 325 317 316 314 318 327 327 328 328 329 330 331 331 332 332 333 336 338 339 339 337 335 333 332 331 330 329 328 328 327 327
328 328 327 326 324 323 322 322 323 321 321 320 320 323 321 322 316 318 325 326 327 327 328 329 329 330 331 332 336 337 336 337 336 334 332 331 331 330 329 328 327 327 326
326 328 327 326 325 323 323 324 323 323 322 321 319 318 320 319 319 319 317 321 325 326 327 329 329 329 331 332 334 335 334 334 333 333 332 331 330 329 328 327 327 326 325
324 326 329 327 326 325 327 324 323 324 323 322 322 322 321 317 319 317 319 318 319 323 327 329 329 330 331 332 334 332 330 329 327 328 329 331 331 330 328 327 327 326 325
323 324 325 327 326 328 328 326 325 324 324 323 321 322 322 321 320 322 320 316 316 321 324 328 330 329 332 331 331 331 330 326 324 324 325 326 328 329 330 329 328 326 325
323 325 325 326 328 328 328 326 325 324 324 321 322 322 322 323 323 323 320 318 314 317 322 323 329 330 330 332 332 330 327 324 322 321 321 322 324 326 326 327 326 326 326
326 326 325 326 327 328 327 326 324 323 324 324 324 322 321 321 321 319 320 322 320 315 317 323 324 329 331 332 332 329 326 324 323 320 320 320 321 321 322 322 322 322 323
324 325 325 325 327 326 326 326 328 326 326 325 324 322 321 321 320 321 321 323 323 320 317 323 324 328 329 331 333 328 326 324 322 320 319 318 318 318 318 318 318 319 320
324 326 326 326 326 326 326 325 328 325 323 322 322 321 322 322 320 322 323 324 322 323 319 321 325 327 327 327 331 330 328 323 321 319 320 318 316 315 315 316 316 317 317
325 326 326 327 327 326 325 326 327 326 323 322 320 320 321 321 319 321 322 321 320 322 322 319 322 325 325 327 328 326 326 325 319 320 318 316 314 313 312 313 313 313 312
326 326 325 326 327 327 326 325 326 325 324 322 321 321 322 322 321 321 320 319 319 324 322 320 319 319 321 322 322 319 314 312 315 318 316 315 313 312 312 311 310 310 308
326 327 327 327 329 328 328 328 326 324 325 324 323 323 323 323 322 322 323 320 321 320 320 318 315 313 315 315 316 313 315 318 318 316 315 312 312 313 312 310 310 310 307
323 324 326 329 329 329 329 327 327 325 324 323 323 325 325 324 322 322 323 321 320 319 317 314 311 313 312 312 310 313 314 315 316 313 308 307 307 306 308 310 312 312 308
320 321 320 320 321 328 310 315 323 326 325 324 323 324 323 322 320 317 313 314 318 316 312 311 311 311 312 314 314 314 314 311 310 316 312 308 306 304 306 304 307 306 305
318 318 318 317 312 312 309 310 315 327 325 324 323 324 325 326 321 320 309 309 309 312 314 314 313 312 312 315 315 312 312 313 312 316 314 311 308 306 307 309 305 304 303
319 317 316 314 311 307 304 307 312 325 324 323 322 323 324 321 319 317 315 317 317 315 316 323 319 314 314 316 318 318 315 314 315 317 315 311 313 312 316 314 305 305 304
320 317 316 313 310 306 302 308 319 322 321 321 323 320 319 317 307 307 317 314 313 310 302 302 302 299 298 301 309 314 312 308 305 306 306 302 302 301 304 306 304 302 301
319 320 318 313 309 308 299 300 314 321 318 313 310 310 310 310 300 306 315 314 311 309 304 303 303 300 300 301 303 305 307 303 301 299 305 301 301 300 299 304 304 304 303

GFSMA_sfc_thetae_024.txt.gz
Theta_e
320 320 320 320 320 320 320 321 322 324 324 325 323 322 326 328 328 333 334 346 346 346 347 347 346 344 343 343 343 342 342 342 346 346 345 343 342 339 337 335 334 334 333
321 319 319 321 321 320 319 321 322 322 322 322 321 322 326 327 329 333 334 340 346 345 346 346 346 345 343 343 342 341 342 343 345 344 342 341 339 336 335 335 334 334 333
321 321 319 320 322 321 320 320 322 323 323 322 321 321 325 328 331 333 334 335 341 344 344 346 345 344 343 344 342 341 341 344 344 342 340 339 338 337 335 334 334 333 332
323 321 320 320 322 321 319 319 320 320 323 322 320 322 324 328 330 332 333 334 332 339 342 343 344 343 342 343 341 341 342 343 342 340 338 337 336 336 334 333 332 332 331
326 322 321 321 321 319 318 319 319 319 320 320 320 321 324 326 329 333 335 334 333 333 333 342 341 341 341 340 341 341 343 342 340 339 337 336 335 335 334 333 331 330 329
325 324 321 321 321 318 318 318 318 321 320 320 324 321 322 326 330 331 334 335 333 334 333 334 336 337 337 339 339 342 344 341 338 336 337 336 335 334 333 332 331 329 328
325 323 321 321 321 317 317 318 319 320 318 321 319 319 322 329 330 332 334 332 332 333 334 335 335 334 336 340 340 342 343 340 338 336 336 335 335 333 332 331 330 329 328
325 324 321 321 320 318 318 318 318 316 317 319 318 321 317 321 325 329 330 331 331 331 332 333 333 333 335 334 336 339 341 340 338 336 334 335 334 332 332 330 329 328 328
325 324 322 319 320 318 318 318 318 318 317 319 323 317 316 315 319 325 326 328 329 329 331 331 330 333 333 333 335 337 339 339 337 336 334 333 332 332 331 329 328 328 327
325 325 325 323 321 320 317 318 320 319 318 319 321 323 321 322 317 316 324 325 327 328 328 330 330 331 332 332 335 337 336 337 336 335 333 333 332 331 330 328 328 327 327
324 327 325 324 322 320 318 320 320 320 319 321 320 317 318 319 322 318 316 319 324 326 328 329 329 329 330 332 334 335 335 335 334 334 333 332 331 330 329 328 328 327 326
321 323 325 323 322 321 320 320 320 321 320 321 320 322 319 317 320 319 318 318 319 322 327 327 327 328 330 330 334 334 331 330 328 329 330 331 332 330 329 328 327 327 326
322 321 323 323 322 324 322 321 321 321 321 320 319 319 319 322 321 323 321 317 316 321 324 326 327 328 330 330 333 332 331 326 324 324 325 327 329 330 330 329 327 327 325
321 321 323 324 325 325 324 322 321 321 321 320 320 319 322 321 324 324 320 318 316 318 320 323 327 329 330 330 330 330 327 324 323 321 321 322 324 326 327 327 328 327 327
325 322 323 324 325 325 324 322 321 320 320 319 318 318 320 320 319 320 321 322 319 314 315 321 323 329 330 330 330 328 325 324 323 319 319 319 320 321 322 323 323 323 323
323 322 322 323 324 324 323 322 322 323 324 323 320 319 318 317 319 320 320 322 322 319 317 323 324 327 329 330 332 328 326 324 321 321 319 318 318 318 319 319 319 320 321
323 323 323 324 323 323 324 324 323 323 322 321 320 322 320 318 319 320 321 323 323 323 319 322 326 328 327 329 330 328 326 323 322 319 319 318 316 315 316 316 316 317 318
323 323 324 324 323 323 324 324 323 323 321 320 320 321 320 320 318 320 322 322 323 323 322 320 324 325 325 325 328 328 328 325 320 320 318 317 315 314 314 314 313 313 312
322 324 324 324 325 324 325 324 323 321 321 320 321 320 320 319 318 321 321 321 323 324 323 322 320 322 323 325 324 320 317 318 320 321 316 316 315 314 313 312 311 310 308
323 324 326 327 327 326 327 326 325 323 321 320 321 322 322 322 321 321 321 320 320 321 321 319 317 315 318 317 318 317 313 312 311 315 314 313 314 314 313 311 311 311 308
324 327 327 328 328 327 327 325 324 323 322 322 322 324 324 322 321 321 322 320 320 319 318 315 312 311 311 311 313 311 310 311 313 315 309 309 308 307 308 310 313 313 309
321 324 326 327 326 326 309 313 321 324 323 323 322 323 323 321 318 315 314 315 319 318 315 312 310 309 308 310 310 310 310 309 310 314 310 311 308 307 307 306 307 305 304
315 315 316 318 321 320 305 308 312 325 323 323 323 323 324 325 321 321 310 309 309 310 313 313 311 310 309 312 311 310 310 310 309 313 312 310 310 309 310 309 306 305 303
314 313 312 312 314 317 303 305 311 325 323 323 324 324 324 322 320 319 313 315 314 316 316 316 313 313 314 314 315 314 312 310 312 308 311 309 303 303 303 301 303 302 301
313 312 311 311 308 306 302 302 315 322 321 321 323 324 323 320 310 305 315 312 309 306 303 303 306 304 303 303 310 316 311 309 304 304 304 301 300 299 300 302 303 303 301
314 314 312 311 307 304 299 303 314 321 316 316 316 318 309 316 301 302 313 311 308 306 303 301 300 299 299 300 302 305 306 301 299 298 304 300 300 299 298 304 304 301 300

GFSMA_sfc_thetae_030.txt.gz
Theta_e
320 320 320 321 321 321 321 321 322 324 326 327 327 327 326 326 327 330 332 335 338 343 345 348 350 348 348 345 342 340 341 343 343 343 343 344 345 343 342 340 339 338 337
321 320 320 321 320 321 322 321 321 323 324 326 326 326 326 326 327 329 331 333 336 343 345 348 349 348 348 346 343 342 341 342 342 342 341 343 343 341 339 337 336 335 334
322 322 321 321 322 321 322 321 321 323 323 323 324 325 325 326 327 328 331 334 337 342 344 346 347 347 347 346 342 342 340 341 340 339 341 340 340 339 337 335 335 334 333
324 322 321 321 321 322 321 320 320 321 321 322 322 323 324 325 326 328 332 334 337 341 343 345 347 346 345 345 343 343 341 340 338 338 339 339 339 338 337 335 334 333 332
327 322 321 321 322 321 321 320 319 321 320 321 322 323 323 324 326 331 332 333 335 339 341 343 343 343 344 344 342 342 341 339 338 339 339 339 338 338 337 334 333 331 330
326 323 322 321 321 320 319 319 320 321 321 322 323 322 322 324 328 329 330 333 336 335 337 338 342 341 342 343 343 342 341 339 338 339 339 338 337 336 335 333 332 330 329
325 322 322 321 321 319 318 319 320 320 321 322 320 319 321 322 324 328 332 334 331 333 336 337 337 338 340 342 341 341 341 341 339 338 338 336 336 335 333 332 331 329 328
325 323 321 321 320 318 318 319 320 319 320 322 318 317 315 321 325 328 330 330 330 333 334 335 336 336 337 338 338 339 342 341 340 338 338 336 336 334 332 331 330 329 328
325 324 323 321 320 318 317 318 320 321 319 322 322 319 314 314 321 326 327 327 330 330 332 334 334 334 334 335 336 338 338 339 339 338 337 336 335 333 332 331 329 329 328
325 325 324 322 320 319 317 319 321 321 321 319 321 322 322 324 317 315 324 326 329 329 329 332 331 332 332 333 336 338 336 336 337 336 335 335 335 333 332 331 329 329 328
325 326 325 322 321 319 318 320 320 321 321 320 320 321 322 321 324 322 315 319 325 327 329 330 330 331 331 333 334 334 333 334 333 334 335 335 334 333 332 330 329 328 328
323 324 326 325 322 320 319 320 321 321 322 323 323 322 320 319 319 322 318 319 319 323 327 329 329 330 330 333 334 333 331 330 329 330 331 333 333 332 331 329 329 328 327
322 322 324 322 321 320 320 321 321 321 323 324 323 322 321 323 323 323 322 318 318 322 324 327 329 330 331 331 332 332 331 327 325 325 326 328 330 331 331 330 329 328 326
322 323 324 322 322 321 321 321 321 322 322 322 322 322 323 324 327 327 323 319 316 319 322 321 327 330 331 330 332 332 329 325 323 321 322 323 325 327 328 328 328 327 328
324 323 324 324 323 322 322 321 322 322 323 321 323 323 324 324 325 323 323 324 319 315 316 321 322 328 330 330 331 329 328 324 323 320 320 320 321 323 323 324 323 324 324
322 322 323 324 323 322 322 322 321 321 321 321 322 321 322 321 323 324 322 323 325 321 316 323 323 326 329 329 329 327 326 325 321 319 319 318 318 319 320 320 320 321 322
323 322 323 323 322 321 322 322 323 323 321 320 320 321 320 321 321 324 323 325 325 323 319 321 324 326 326 326 326 326 326 325 322 320 320 318 316 316 317 317 317 318 318
324 323 323 322 322 322 323 323 323 323 322 320 321 321 321 321 322 324 325 325 325 325 322 318 322 324 324 326 325 325 325 326 325 322 319 317 315 315 314 314 314 313 312
323 323 323 323 323 322 322 323 322 321 320 321 321 321 321 321 322 323 325 325 326 325 324 321 321 324 324 326 325 325 324 324 326 323 317 316 314 314 313 312 311 310 308
324 324 324 325 325 323 322 322 321 320 321 321 321 322 322 322 322 324 324 325 325 324 324 322 321 321 323 324 323 320 317 317 322 321 318 315 314 313 312 311 312 312 307
326 326 325 325 326 324 322 322 322 321 321 322 322 322 322 321 319 320 324 323 323 321 321 320 318 319 319 321 320 318 317 316 317 318 317 314 315 314 311 310 310 308 305
325 326 325 325 325 323 305 311 318 322 322 322 321 321 320 318 315 312 312 312 319 320 318 317 315 317 317 319 319 318 316 315 313 318 317 310 311 308 309 309 305 303 302
321 323 323 324 322 318 304 305 312 323 322 323 322 322 322 321 320 319 310 310 311 311 315 319 316 318 317 320 317 315 315 314 315 313 314 307 309 306 308 307 303 301 301
317 319 321 321 320 314 302 303 308 324 323 324 324 323 322 321 318 319 318 318 317 317 318 319 321 318 320 320 320 319 317 314 311 309 316 307 307 306 307 305 301 300 299
314 316 318 320 316 312 300 302 316 323 323 323 323 323 322 321 304 304 317 316 313 310 302 300 301 300 300 303 312 318 316 315 311 309 309 308 306 306 306 304 303 300 298
314 315 314 316 311 314 299 302 316 323 322 322 322 321 310 318 301 303 315 315 313 310 308 308 310 307 307 305 305 320 318 314 307 307 310 308 306 306 303 304 301 300 301

GFSMA_sfc_thetae_033.txt.gz
Theta_e
335 334 332 332 331 331 331 331 331 330 331 332 333 335 334 335 336 335 334 335 337 338 340 346 347 349 349 348 346 343 343 342 340 339 339 341 342 345 344 343 341 340 338
334 333 332 331 332 332 331 331 330 330 329 332 333 334 334 335 335 334 331 331 335 336 340 345 347 348 349 347 346 343 340 340 338 338 338 340 341 343 342 341 339 337 337
334 333 332 332 332 331 333 332 332 331 329 331 331 333 334 335 334 333 331 334 336 337 341 344 347 348 349 347 345 342 340 338 339 338 339 339 341 341 339 337 336 335 334
336 335 333 332 334 332 331 330 330 328 328 329 330 332 333 333 332 332 332 334 337 342 343 343 345 347 347 347 346 344 342 340 338 338 338 339 340 339 338 337 335 334 333
336 334 334 333 334 331 330 330 330 329 327 328 329 333 331 331 332 331 333 338 340 342 344 343 343 344 346 348 346 344 342 339 338 337 339 338 339 338 338 336 334 332 331
335 335 334 333 332 331 330 328 328 329 328 329 329 329 331 332 333 335 337 339 339 342 345 345 346 348 344 346 344 343 342 340 338 338 338 338 339 338 336 334 332 331 330
334 334 333 333 332 330 330 330 328 328 328 330 329 328 327 331 333 335 338 338 335 338 344 346 347 347 346 342 342 342 342 339 338 339 337 337 337 337 335 333 331 330 328
334 333 333 331 332 329 329 328 328 325 327 329 325 321 318 325 330 332 337 337 334 336 339 341 344 345 345 340 342 341 341 341 341 339 337 337 337 336 333 332 330 329 328
333 334 332 331 331 329 327 328 329 329 326 328 331 324 318 317 323 332 332 335 333 335 337 338 341 342 343 343 340 340 340 340 341 338 338 336 335 334 332 331 330 329 328
332 333 332 332 330 329 328 328 329 332 331 323 328 334 333 330 320 320 329 332 334 335 337 338 339 340 340 339 338 338 336 337 337 337 337 335 334 333 332 331 330 329 328
333 332 333 331 331 329 330 330 330 330 331 330 331 330 332 332 331 324 319 322 329 332 333 333 333 333 335 335 335 334 334 333 333 334 335 335 334 333 332 331 330 329 328
333 333 333 333 332 330 329 329 331 331 331 332 329 329 328 326 326 324 322 322 322 326 331 333 333 333 333 333 336 333 331 330 329 330 331 333 334 333 332 331 330 329 329
332 333 334 334 332 332 331 331 331 331 331 332 332 327 324 327 332 332 326 321 321 323 325 329 331 332 333 332 333 332 330 327 326 325 327 329 331 332 332 331 330 329 328
333 334 334 334 333 332 331 332 330 331 332 331 331 331 327 324 326 334 326 322 320 319 322 325 330 330 330 330 329 330 328 325 323 322 322 324 326 328 329 329 330 328 328
334 333 334 332 332 331 331 332 330 331 328 327 333 330 326 326 332 335 329 326 322 316 318 323 323 328 329 329 329 329 329 324 324 320 320 321 322 323 324 325 325 325 325
333 333 333 332 332 331 331 332 330 332 330 330 331 332 327 330 332 330 326 324 325 323 319 324 324 326 328 329 330 329 328 325 322 320 320 319 319 320 321 321 321 322 323
333 332 332 332 332 331 331 331 331 330 330 330 331 330 325 330 327 326 331 333 331 329 321 323 325 326 325 325 327 327 327 326 324 320 320 318 316 317 318 318 319 319 319
332 333 332 331 330 330 330 329 328 327 327 326 325 328 323 330 331 327 326 329 329 331 324 319 324 324 323 325 325 324 325 326 325 321 318 316 315 315 316 317 316 315 313
332 331 332 330 330 329 328 328 328 327 325 326 329 328 324 328 328 330 330 331 329 328 325 323 321 324 323 324 324 325 325 324 326 322 318 316 315 316 315 313 312 311 308
331 331 332 331 330 327 326 326 325 324 324 325 328 327 328 329 330 331 329 329 330 326 324 322 321 321 321 325 324 321 318 322 322 323 316 316 315 312 312 311 310 307 304
331 329 329 327 330 325 324 324 324 324 325 324 326 326 327 327 322 326 328 330 328 325 323 321 320 320 320 321 321 322 317 317 321 324 323 324 321 316 313 309 308 306 303
329 328 327 327 328 324 306 310 321 324 325 325 325 325 327 321 316 310 313 315 321 323 321 320 321 320 321 320 320 321 318 317 316 325 318 314 316 313 313 311 304 302 301
331 327 326 329 325 322 304 306 312 327 326 325 324 324 323 321 322 322 310 311 311 310 314 323 320 321 323 325 326 322 322 321 321 322 316 311 314 310 309 304 301 300 299
330 329 323 323 323 317 302 304 310 328 326 325 324 324 322 320 320 321 323 320 320 319 320 324 326 326 329 328 329 331 325 320 321 319 321 310 313 309 308 305 300 298 297
329 329 327 319 320 313 301 303 316 326 325 324 323 323 323 317 302 306 320 317 318 316 303 301 303 301 303 307 318 324 318 319 316 316 319 313 310 309 309 307 302 298 296
327 328 327 325 314 315 299 304 317 325 325 323 323 321 309 316 300 305 323 321 321 318 317 321 322 313 316 311 309 330 325 323 319 312 316 314 312 311 308 308 307 305 305

GFSMA_sfc_thetae_036.txt.gz
Theta_e
339 338 339 337 334 333 333 333 333 333 333 334 333 333 334 336 335 334 336 339 337 338 339 340 345 347 348 349 347 346 344 343 341 339 339 338 339 341 342 344 344 343 341
339 338 337 337 335 335 335 336 333 332 332 332 332 333 335 335 335 336 335 335 336 335 337 340 345 347 348 348 347 346 344 342 340 338 338 337 338 339 343 342 340 339 338
340 340 338 336 335 337 338 337 336 334 332 332 332 332 334 337 336 336 336 333 333 336 337 339 344 347 348 348 348 345 343 342 339 337 336 337 337 338 341 341 339 337 336
341 340 339 337 337 338 337 335 336 332 332 329 333 334 334 336 334 336 333 330 333 335 338 341 344 346 348 347 348 345 343 341 339 337 336 336 337 339 340 339 336 335 334
340 339 336 336 337 336 336 335 335 332 333 332 330 335 334 334 333 331 329 334 339 337 340 344 345 345 347 348 348 346 342 340 338 337 337 337 338 338 338 337 336 335 333
338 337 336 336 337 336 336 335 333 333 331 332 330 331 333 330 329 329 332 337 339 340 345 347 348 348 346 346 347 346 344 342 339 338 336 337 337 339 337 336 334 333 331
337 336 335 335 335 333 335 335 332 329 330 333 330 330 333 330 332 331 337 340 339 341 345 348 349 351 348 343 344 345 344 342 340 338 338 337 337 338 336 334 332 331 330
338 336 335 335 335 334 334 332 332 327 327 333 328 326 317 326 333 335 339 338 338 342 343 345 345 347 343 342 347 343 343 342 339 340 338 337 337 337 334 333 331 330 329
336 337 337 336 334 336 334 333 331 330 329 332 333 323 316 314 324 333 336 337 337 338 341 344 345 347 347 346 344 343 341 340 339 341 338 338 337 334 333 332 330 329 328
336 335 336 335 335 337 334 331 331 334 334 328 333 328 330 326 319 320 331 334 338 339 341 344 345 346 347 346 343 342 337 338 340 338 337 336 335 334 333 331 330 329 328
337 336 337 336 336 335 334 332 333 335 336 330 333 326 332 332 331 328 320 326 334 339 341 341 343 345 345 343 342 337 335 335 335 335 335 336 334 333 332 331 330 329 329
338 336 335 337 337 335 333 332 335 335 335 333 333 331 330 329 328 327 322 327 326 330 338 335 337 339 341 339 336 333 332 330 329 329 331 331 332 333 332 331 330 330 329
337 336 337 337 337 335 334 334 336 335 336 333 330 333 333 335 337 335 326 326 322 325 327 336 337 333 335 336 334 332 330 327 325 325 327 329 331 332 332 331 330 330 329
338 338 337 337 336 335 334 335 334 336 336 335 331 331 331 334 334 337 332 327 322 323 327 327 336 333 334 334 333 330 328 325 324 323 323 325 326 328 329 330 330 330 330
337 337 337 336 335 335 334 336 334 335 335 336 335 332 328 327 335 338 337 336 330 320 319 324 325 331 328 331 329 328 326 325 324 322 321 321 323 324 325 326 326 326 326
335 336 335 336 335 334 333 335 335 335 332 334 338 332 330 326 333 334 336 330 328 326 318 325 325 325 326 327 328 327 327 326 322 320 320 319 320 321 321 322 323 325 324
336 335 334 334 334 333 334 334 334 333 333 334 335 332 325 331 331 332 332 330 326 327 323 324 324 326 325 325 327 326 328 327 324 320 321 319 317 318 319 320 322 323 322
335 335 334 333 333 333 334 333 331 332 332 331 330 330 330 332 329 329 331 329 330 333 327 321 323 324 324 325 326 325 325 326 325 320 318 316 316 316 318 320 320 316 314
335 335 334 332 332 333 333 333 332 332 330 332 332 330 331 331 327 328 331 334 332 331 326 322 320 323 323 324 323 324 323 324 325 321 316 315 315 316 314 313 312 309 306
332 334 333 333 332 332 333 332 331 331 329 332 331 333 332 331 332 334 334 332 331 328 326 322 320 320 322 323 323 321 320 323 321 321 316 317 314 312 310 309 308 306 303
332 333 332 333 331 332 331 331 330 331 328 329 330 330 331 328 321 326 336 332 331 326 324 321 319 319 320 320 319 320 317 320 321 321 319 318 318 317 314 309 307 304 302
332 331 331 331 331 329 309 312 324 329 328 328 327 328 330 326 321 311 313 314 328 324 322 321 319 318 320 320 320 317 317 315 318 329 324 320 322 318 316 311 302 301 300
333 329 329 330 330 330 305 307 312 329 327 327 330 329 328 329 327 328 311 310 310 309 317 324 320 322 321 323 321 318 321 320 319 321 320 315 318 313 310 304 300 299 299
333 325 325 329 329 324 304 305 308 329 328 327 328 328 327 329 324 325 323 322 319 321 325 326 325 325 325 327 330 326 323 328 324 321 324 315 317 312 309 304 299 298 297
333 331 329 326 327 324 302 305 318 328 326 324 324 322 321 324 303 307 320 319 318 317 305 304 308 307 307 310 321 328 323 321 319 321 325 319 316 312 310 305 300 297 296
333 332 322 323 316 321 300 304 319 328 323 321 323 322 306 313 302 308 324 322 318 321 325 321 318 312 316 315 310 334 326 322 322 321 324 318 315 313 309 312 308 304 302

GFSMA_sfc_thetae_042.txt.gz
Theta_e
342 345 342 341 339 339 336 335 335 335 334 332 331 331 332 332 334 334 335 343 342 341 341 341 341 340 346 348 350 349 347 346 344 342 342 341 340 340 340 340 340 341 343
345 342 343 340 340 342 337 336 334 334 332 332 333 332 332 332 334 333 335 337 340 341 341 340 341 341 345 349 349 348 347 346 345 343 341 339 338 339 340 341 340 342 340
345 344 341 340 341 340 339 337 336 335 334 332 332 331 334 332 333 333 335 333 338 342 341 340 341 340 345 349 348 348 347 346 345 342 341 341 340 339 340 340 341 340 338
345 344 339 338 341 340 337 337 335 333 332 332 331 331 332 333 333 335 333 332 334 334 338 341 342 342 345 349 348 348 347 345 343 342 341 339 339 340 340 340 340 338 337
344 342 339 341 340 338 336 335 334 333 330 329 330 331 332 332 332 333 333 334 333 332 334 338 341 341 346 348 348 348 347 344 342 341 340 339 340 339 339 340 340 338 336
342 341 341 339 339 336 334 334 331 333 330 330 330 330 331 331 332 331 332 333 332 330 332 336 335 337 346 348 347 347 347 343 342 340 340 339 339 339 339 338 338 337 336
341 340 340 338 337 334 333 333 331 329 328 330 326 326 327 329 330 330 331 329 330 331 331 336 336 337 341 345 344 346 346 345 342 340 339 338 338 338 338 336 336 336 334
342 339 338 336 336 334 333 332 331 328 328 329 323 322 317 322 325 325 329 330 330 333 333 335 337 337 340 341 340 343 345 344 342 340 338 338 338 338 337 336 334 333 331
340 338 336 335 335 336 333 332 332 329 324 327 327 322 316 313 318 325 326 328 329 329 332 334 338 338 341 343 341 342 343 343 342 341 338 338 337 336 336 335 332 331 330
338 337 336 336 336 334 334 333 333 330 328 323 326 328 327 323 316 314 324 326 328 330 331 333 335 336 339 340 343 341 339 340 341 340 339 338 337 336 334 332 331 330 329
338 337 336 337 335 336 333 332 331 330 331 328 326 326 324 324 324 318 314 320 326 329 330 333 331 325 328 333 338 337 336 336 336 337 338 337 337 334 333 328 327 330 329
338 335 336 336 337 334 333 332 333 332 329 330 329 328 324 321 320 319 316 318 321 325 329 332 333 330 329 329 336 336 334 332 331 332 332 333 332 330 327 326 330 330 329
335 336 336 336 337 335 334 334 333 330 330 329 329 327 328 327 326 324 321 319 320 325 326 331 333 335 327 332 333 335 333 329 327 326 327 328 329 329 327 331 330 330 329
338 339 338 337 337 335 334 333 332 331 332 330 329 329 328 328 328 324 322 321 319 321 323 325 331 332 333 334 331 333 329 325 323 321 321 322 323 326 329 329 330 330 330
339 337 338 336 336 333 334 333 332 331 331 331 330 328 327 329 331 329 328 326 321 317 318 325 326 330 332 332 332 329 327 323 322 319 318 319 321 324 325 326 326 326 327
338 336 337 336 334 333 334 334 334 334 331 332 328 326 326 327 329 332 329 328 326 322 320 326 326 329 328 329 330 327 326 324 321 320 320 319 320 321 322 323 323 323 323
337 335 334 333 331 330 333 332 333 331 329 327 327 325 323 324 327 329 330 328 327 326 319 322 325 327 325 324 325 325 325 323 322 321 321 319 318 318 319 320 321 321 321
335 335 334 332 331 331 331 331 330 330 329 325 325 325 325 329 327 329 328 327 326 326 321 317 323 323 322 323 323 324 324 325 324 320 318 317 317 316 317 317 317 315 314
334 332 332 332 332 331 330 332 331 330 330 327 327 326 327 328 327 328 328 326 326 324 322 320 319 322 322 323 321 323 322 321 322 319 315 315 314 314 313 312 310 309 307
334 331 332 333 333 331 332 332 331 331 331 330 330 331 330 328 327 326 326 326 324 322 321 320 319 319 319 320 319 317 315 317 317 318 315 313 312 311 310 308 308 307 304
334 332 331 333 331 329 329 330 331 330 331 331 331 330 326 323 320 324 329 325 323 321 320 318 317 317 316 316 314 315 314 314 315 314 310 309 308 307 307 307 307 305 302
333 333 332 331 330 326 308 312 324 329 330 329 328 330 327 324 316 313 317 318 322 321 319 318 317 316 316 315 315 314 313 312 310 317 313 311 311 307 306 304 304 302 301
333 331 329 329 326 324 306 309 313 329 327 328 327 330 328 327 326 322 311 312 311 310 316 321 318 318 317 317 317 314 313 312 312 316 316 312 309 302 301 300 301 300 299
331 332 331 329 325 319 307 308 312 330 329 330 330 330 327 328 325 327 326 323 322 322 322 323 321 320 320 319 319 317 316 315 316 318 319 307 307 302 300 297 299 298 298
329 331 330 327 324 321 306 305 319 328 327 326 324 326 325 322 304 308 321 319 319 319 310 309 308 305 303 305 315 320 320 317 314 314 317 311 308 304 301 296 296 298 297
329 330 329 328 317 323 302 303 319 325 322 323 322 319 306 314 302 306 321 320 318 319 319 317 314 309 310 310 308 322 321 315 313 312 317 315 309 307 301 300 296 294 294

GFSMA_sfc_thetae_045.txt.gz
Theta_e
332 332 331 331 331 331 331 331 332 330 329 329 330 330 330 331 328 331 333 344 342 343 343 342 341 341 343 348 349 349 348 347 345 344 341 342 342 341 342 341 340 340 341
332 333 333 332 330 331 329 328 327 326 326 328 329 329 328 327 328 330 329 334 341 341 343 342 342 341 340 347 348 349 347 347 346 342 342 342 341 341 341 341 341 341 341
333 333 331 330 331 331 330 329 328 328 326 326 326 328 327 328 329 329 331 331 334 342 343 342 342 342 341 344 348 348 347 346 346 343 342 342 341 341 342 342 341 341 341
334 333 332 329 330 330 329 327 326 326 326 325 323 323 324 325 327 327 328 329 331 333 338 343 342 344 343 344 348 347 347 346 345 343 342 341 341 342 342 341 341 340 338
337 333 330 329 330 329 328 327 326 325 323 322 324 324 325 325 326 330 329 328 327 330 329 337 339 342 343 347 346 348 346 346 344 343 342 342 341 341 340 340 340 338 337
337 332 331 330 330 328 327 326 325 324 323 322 325 325 323 325 326 326 327 329 328 329 328 329 332 335 342 347 345 347 347 347 344 342 341 340 340 341 339 340 338 337 336
334 331 329 329 329 327 326 326 324 323 321 322 319 319 320 324 324 325 326 325 326 327 324 331 331 331 335 345 344 346 346 347 344 342 340 338 340 339 339 337 338 336 335
332 330 329 330 329 326 326 325 323 320 321 322 317 315 311 315 320 323 322 324 325 328 328 333 331 333 334 338 339 345 347 346 344 342 340 339 339 339 338 338 336 333 328
333 330 331 329 327 326 324 325 324 322 318 320 320 315 309 307 312 318 320 322 323 323 325 333 332 332 334 337 340 343 344 344 344 343 340 339 339 337 338 336 334 327 326
331 332 329 328 326 327 324 325 327 322 320 316 319 323 319 316 309 309 317 319 321 323 323 328 327 329 335 337 340 341 338 341 343 342 339 339 338 335 335 334 328 326 327
329 331 329 327 327 326 325 324 323 322 322 318 318 318 319 319 316 311 309 314 318 324 324 325 324 325 331 334 338 338 336 337 337 338 338 339 337 336 332 329 326 326 330
328 331 330 327 326 325 324 324 323 323 323 323 322 321 318 315 315 316 309 310 313 318 323 325 321 322 327 335 341 338 334 333 331 332 334 334 334 333 329 327 327 330 330
325 327 326 326 326 325 325 325 324 323 324 322 322 322 321 319 319 317 313 312 314 317 321 327 330 328 326 327 336 336 334 329 328 327 328 329 330 328 327 327 330 330 330
326 327 326 327 327 328 326 324 325 325 324 323 323 322 321 322 320 318 314 314 311 314 317 324 330 326 328 327 334 333 330 327 325 322 322 322 323 323 325 330 330 330 330
330 328 328 327 327 326 325 323 324 323 324 324 325 325 321 323 325 322 317 319 314 311 317 322 323 330 328 328 331 329 328 325 324 321 321 320 322 324 325 326 326 326 327
329 328 328 327 326 325 326 326 324 325 322 323 322 322 320 319 321 326 321 320 319 315 316 323 326 327 328 328 331 327 326 324 321 319 320 320 320 321 322 322 322 323 324
329 328 328 326 325 326 326 324 323 325 324 324 324 323 321 319 320 323 324 321 320 320 318 321 325 326 325 325 325 324 325 322 321 320 321 319 318 319 319 319 320 320 320
328 328 328 329 328 328 326 324 324 326 325 324 322 323 322 326 323 322 322 320 319 319 321 317 321 322 322 323 323 321 322 323 321 321 319 318 317 316 317 316 316 315 314
327 328 327 326 326 326 327 325 327 325 325 322 322 321 323 324 323 324 323 321 321 320 321 320 319 321 321 322 321 321 321 321 321 320 316 315 315 315 313 312 311 310 309
326 329 329 328 327 327 327 328 326 324 324 324 324 326 324 323 324 324 324 322 321 320 320 320 318 318 320 321 320 317 316 317 316 317 314 313 312 312 311 309 310 309 306
326 326 329 326 327 326 327 325 325 325 324 325 325 325 323 322 323 325 326 323 322 320 319 318 317 316 316 316 315 316 313 313 313 312 310 309 308 306 306 308 310 307 303
326 325 324 325 323 322 308 314 321 323 324 324 325 322 320 319 319 317 317 317 320 320 318 317 315 314 314 314 315 314 313 311 308 314 311 307 306 304 304 302 304 302 301
323 323 325 320 318 314 302 309 316 326 325 324 324 324 325 323 319 317 310 311 311 310 315 319 316 315 314 316 314 313 312 311 310 313 311 306 304 300 299 301 301 300 299
322 324 323 320 316 313 302 302 314 326 326 326 323 322 322 321 319 321 321 321 320 321 321 321 320 318 318 318 317 316 314 313 314 315 312 303 302 298 297 297 299 299 298
321 322 322 318 316 317 303 304 319 325 323 320 320 322 322 320 305 307 321 320 319 317 308 306 306 305 303 305 313 316 313 311 309 312 314 306 303 298 296 294 295 298 297
322 324 322 318 315 319 303 304 316 320 318 319 319 316 306 314 302 305 321 320 318 317 317 316 314 309 310 309 307 317 318 312 311 311 312 307 302 301 296 296 293 293 293

GFSMA_sfc_thetae_048.txt.gz
Theta_e
333 332 330 329 330 329 330 328 328 330 330 327 328 328 328 331 332 327 328 339 342 343 343 343 342 342 345 347 349 348 347 347 346 346 344 344 342 342 340 338 337 341 341
333 330 330 329 328 328 329 328 327 327 326 327 326 328 329 328 328 328 328 330 342 343 343 341 343 342 341 346 347 347 347 346 347 345 344 343 342 340 339 340 341 341 341
332 331 329 329 328 329 330 328 326 327 325 326 324 327 328 329 325 327 327 329 333 342 342 342 341 342 341 340 347 348 347 346 347 345 343 343 342 342 341 342 341 341 341
332 330 328 327 328 328 327 326 325 323 323 324 323 325 326 325 325 325 327 328 329 331 338 341 342 342 342 341 345 347 346 346 345 343 342 343 342 342 342 342 341 340 339
333 330 329 328 328 327 326 324 324 323 321 322 324 323 323 322 323 327 326 327 326 330 329 336 340 341 343 343 344 347 346 346 344 343 343 342 342 342 341 341 340 339 338
333 330 328 327 328 326 323 324 323 322 321 321 323 322 321 322 324 323 325 328 326 326 327 329 331 335 343 343 343 346 347 346 344 344 342 341 341 341 340 339 338 338 337
333 330 328 327 327 326 325 323 322 321 319 320 317 316 318 321 322 323 323 324 325 328 325 327 327 328 333 342 343 344 345 346 346 344 341 340 341 340 339 338 337 337 335
332 329 327 327 326 325 323 323 322 318 319 320 315 313 309 313 318 322 322 323 323 324 326 326 329 328 330 334 338 343 345 346 347 345 341 339 340 339 338 337 337 334 331
330 329 328 327 326 324 322 322 322 322 318 319 319 314 307 306 309 316 319 320 321 322 324 327 330 330 331 333 339 341 343 343 345 344 342 340 340 339 338 337 335 329 327
330 330 329 328 325 323 322 322 324 320 317 315 317 320 315 313 307 307 315 319 319 321 323 323 327 328 330 332 338 340 340 340 343 344 341 339 339 338 337 334 329 328 328
329 330 327 325 324 323 323 322 322 320 319 316 315 315 315 316 314 309 307 312 316 318 320 322 324 325 329 333 335 337 338 337 337 339 339 339 339 337 334 330 329 327 331
325 327 328 325 324 323 322 322 321 321 320 319 319 318 315 314 313 312 307 307 310 315 321 321 321 324 329 333 337 337 334 332 331 332 334 335 335 335 330 328 329 331 330
323 324 325 324 324 324 323 322 322 322 321 320 320 320 320 318 317 315 312 309 310 314 318 326 320 321 327 335 337 337 334 329 328 328 329 330 330 330 329 328 330 330 329
323 325 324 324 325 325 323 323 321 321 322 322 322 322 321 320 318 316 315 311 309 311 320 323 325 323 325 330 337 334 331 327 326 324 325 325 325 325 325 328 329 330 330
326 325 325 324 325 324 324 321 321 322 322 321 321 323 321 323 323 319 315 316 312 308 315 321 323 327 326 327 333 332 330 325 324 321 320 320 320 322 325 325 325 326 326
327 327 325 325 324 323 323 322 321 324 321 323 322 321 320 320 322 321 318 320 315 313 316 323 323 324 326 326 329 328 327 324 321 319 318 318 319 321 321 321 322 323 324
326 326 326 324 323 323 323 322 320 324 324 323 323 322 320 319 319 322 321 318 317 317 318 321 324 325 324 325 326 325 326 324 320 319 320 319 317 318 319 319 319 320 320
325 326 326 325 326 327 323 321 323 326 323 321 321 322 318 322 321 319 321 317 316 318 320 318 321 322 322 323 322 321 322 322 321 321 319 318 317 316 316 315 315 315 314
325 326 324 325 324 326 326 323 325 325 323 320 320 319 321 322 321 320 319 317 317 319 321 320 318 321 321 322 320 320 319 320 321 321 318 317 315 315 314 313 312 311 309
325 324 324 325 326 326 325 325 325 323 321 321 323 321 323 324 322 321 320 319 319 321 321 320 318 318 319 320 319 316 315 318 317 317 316 315 314 313 312 311 311 310 307
324 325 327 326 326 327 326 324 324 323 322 322 324 325 324 324 322 323 322 321 321 319 319 318 317 317 317 316 314 315 313 313 312 313 311 310 309 308 308 310 312 310 305
323 323 321 322 322 321 305 314 320 322 322 320 319 320 321 319 319 314 316 316 320 321 319 318 317 315 315 315 315 313 311 310 307 313 309 305 307 303 303 302 306 304 302
320 319 319 321 318 314 302 308 313 321 319 319 320 320 321 321 321 319 311 310 310 311 315 319 316 316 314 315 315 313 312 312 311 312 309 302 302 298 298 301 302 301 300
319 320 320 316 315 312 300 304 312 325 322 320 320 320 319 319 318 321 320 319 319 319 319 320 318 317 317 318 318 316 313 312 313 312 309 300 298 295 296 297 300 299 298
318 316 318 315 314 314 301 305 318 322 321 319 320 322 321 320 304 306 320 318 316 313 306 305 306 304 302 304 311 315 311 310 308 309 309 302 299 296 295 294 295 299 297
319 319 318 315 312 316 301 306 316 321 319 318 317 316 307 314 301 305 320 318 315 315 316 314 313 309 310 307 308 314 313 308 309 307 311 302 299 298 295 295 292 294 293